,,,PA_Meas_PMT16A,,PR_Meas_QMR101_102,,RH_Meas_QMH101,,SR_Meas_QMS101,,TA_Meas_QMH101,,GenWind,,GenWind,
date,time,status,PA,status,PR,status,RH,status,SR,status,TA,status,DirAvg,status,SpdAvg,
2010-12-26, 00:00:05,VALID,996.73,VALID,0,VALID,93.089,VALID,0,VALID,23.1531,VALID,285,VALID,0.401563,
2010-12-26, 00:01:05,VALID,996.745,VALID,0,VALID,93.1043,VALID,0,VALID,23.1531,VALID,285,VALID,0.366797,
2010-12-26, 00:02:05,VALID,996.722,VALID,0,VALID,93.1195,VALID,0,VALID,23.1531,VALID,285,VALID,0.413281,
2010-12-26, 00:03:05,VALID,996.697,VALID,0,VALID,93.1195,VALID,0,VALID,23.1549,VALID,285,VALID,0.0902344,
2010-12-26, 00:04:05,VALID,996.685,VALID,0,VALID,93.1119,VALID,0,VALID,23.1744,VALID,285,VALID,0.616016,
2010-12-26, 00:05:05,VALID,996.668,VALID,0,VALID,93.1348,VALID,0,VALID,23.1336,VALID,285,VALID,0.11875,
2010-12-26, 00:06:05,VALID,996.646,VALID,0,VALID,93.1271,VALID,0,VALID,23.1549,VALID,285,VALID,0,
2010-12-26, 00:07:05,VALID,996.638,VALID,0,VALID,93.1271,VALID,0.112286,VALID,23.1336,VALID,285,VALID,0,
2010-12-26, 00:08:05,VALID,996.614,VALID,0,VALID,93.1577,VALID,0,VALID,23.1336,VALID,285,VALID,0,
2010-12-26, 00:09:05,VALID,996.592,VALID,0,VALID,93.1577,VALID,0,VALID,23.1549,VALID,285,VALID,0,
2010-12-26, 00:10:05,VALID,996.582,VALID,0,VALID,93.15,VALID,0,VALID,23.1549,VALID,285,VALID,0,
2010-12-26, 00:11:05,VALID,996.536,VALID,0,VALID,93.1577,VALID,0,VALID,23.1549,VALID,285,VALID,0,
2010-12-26, 00:12:05,VALID,996.532,VALID,0,VALID,93.1729,VALID,0,VALID,23.1762,VALID,285,VALID,0,
2010-12-26, 00:13:05,VALID,996.524,VALID,0,VALID,93.1729,VALID,0,VALID,23.1549,VALID,285,VALID,0,
2010-12-26, 00:14:05,VALID,996.486,VALID,0,VALID,93.1729,VALID,0,VALID,23.1549,VALID,285,VALID,0,
2010-12-26, 00:15:05,VALID,996.466,VALID,0,VALID,93.1805,VALID,0,VALID,23.1744,VALID,285,VALID,0,
2010-12-26, 00:16:05,VALID,996.457,VALID,0,VALID,93.1882,VALID,0,VALID,23.1957,VALID,280,VALID,0.391797,
2010-12-26, 00:17:05,VALID,996.45,VALID,0,VALID,93.1958,VALID,0,VALID,23.1939,VALID,181,VALID,0.548047,
2010-12-26, 00:18:05,VALID,996.409,VALID,0,VALID,93.1958,VALID,0,VALID,23.1744,VALID,181,VALID,0.422266,
2010-12-26, 00:19:05,VALID,996.357,VALID,0,VALID,93.2034,VALID,0,VALID,23.1939,VALID,181,VALID,0.623828,
2010-12-26, 00:20:05,VALID,996.368,VALID,0,VALID,93.1958,VALID,0,VALID,23.1939,VALID,181,VALID,0.416016,
2010-12-26, 00:21:05,VALID,996.362,VALID,0,VALID,93.2187,VALID,0,VALID,23.1939,VALID,181,VALID,0.156641,
2010-12-26, 00:22:05,VALID,996.33,VALID,0,VALID,93.2034,VALID,0,VALID,23.1957,VALID,181,VALID,0.00273437,
2010-12-26, 00:23:05,VALID,996.3,VALID,0,VALID,93.2187,VALID,0,VALID,23.1762,VALID,181,VALID,0.09375,
2010-12-26, 00:24:05,VALID,996.296,VALID,0,VALID,93.2263,VALID,0,VALID,23.1371,VALID,181,VALID,0.165625,
2010-12-26, 00:25:05,VALID,996.258,VALID,0,VALID,93.2187,VALID,0,VALID,23.1159,VALID,181,VALID,0,
2010-12-26, 00:26:05,VALID,996.287,VALID,0,VALID,93.2492,VALID,0,VALID,23.0964,VALID,181,VALID,0,
2010-12-26, 00:27:05,VALID,996.275,VALID,0,VALID,93.2492,VALID,0,VALID,23.0964,VALID,181,VALID,0,
2010-12-26, 00:28:05,VALID,996.278,VALID,0,VALID,93.2492,VALID,0,VALID,23.0751,VALID,181,VALID,0.121094,
2010-12-26, 00:29:05,VALID,996.281,VALID,0,VALID,93.2568,VALID,0,VALID,23.0964,VALID,181,VALID,0.568359,
2010-12-26, 00:30:05,VALID,996.25,VALID,0,VALID,93.2568,VALID,0,VALID,23.0946,VALID,153,VALID,0.703906,
2010-12-26, 00:31:05,VALID,996.284,VALID,0,VALID,93.2416,VALID,0,VALID,23.1354,VALID,153,VALID,0.594141,
2010-12-26, 00:32:05,VALID,996.271,VALID,0,VALID,93.2568,VALID,0,VALID,23.1141,VALID,153,VALID,0.414063,
2010-12-26, 00:33:05,VALID,996.253,VALID,0,VALID,93.2645,VALID,0,VALID,23.1549,VALID,153,VALID,0.342187,
2010-12-26, 00:34:05,VALID,996.247,VALID,0,VALID,93.2492,VALID,0,VALID,23.1336,VALID,153,VALID,0.426562,
2010-12-26, 00:35:05,VALID,996.224,VALID,0,VALID,93.2797,VALID,0,VALID,23.1354,VALID,153,VALID,0.465625,
2010-12-26, 00:36:05,VALID,996.229,VALID,0,VALID,93.2874,VALID,0.112286,VALID,23.1354,VALID,153,VALID,0.544922,
2010-12-26, 00:37:05,VALID,996.235,VALID,0,VALID,93.2721,VALID,0,VALID,23.1141,VALID,153,VALID,0.692969,
2010-12-26, 00:38:05,VALID,996.198,VALID,0,VALID,93.2645,VALID,0,VALID,23.1531,VALID,153,VALID,0.648047,
2010-12-26, 00:39:05,VALID,996.206,VALID,0,VALID,93.2797,VALID,0.112286,VALID,23.1726,VALID,153,VALID,0.560938,
2010-12-26, 00:40:05,VALID,996.205,VALID,0,VALID,93.2568,VALID,0,VALID,23.1921,VALID,153,VALID,0.539063,
2010-12-26, 00:41:05,VALID,996.202,VALID,0,VALID,93.2874,VALID,0,VALID,23.1939,VALID,153,VALID,0.530859,
2010-12-26, 00:42:04,VALID,996.157,VALID,0,VALID,93.2874,VALID,0,VALID,23.2134,VALID,153,VALID,0.333984,
2010-12-26, 00:43:04,VALID,996.139,VALID,0,VALID,93.295,VALID,0,VALID,23.1939,VALID,153,VALID,0.198047,
2010-12-26, 00:44:04,VALID,996.111,VALID,0,VALID,93.3026,VALID,0,VALID,23.1744,VALID,153,VALID,0,
2010-12-26, 00:45:04,VALID,996.084,VALID,0,VALID,93.3026,VALID,0,VALID,23.1744,VALID,153,VALID,0,
2010-12-26, 00:46:04,VALID,996.064,VALID,0,VALID,93.2797,VALID,0,VALID,23.1549,VALID,153,VALID,0.244531,
2010-12-26, 00:47:04,VALID,996.041,VALID,0,VALID,93.3255,VALID,0,VALID,23.1354,VALID,153,VALID,0.406641,
2010-12-26, 00:48:04,VALID,996.052,VALID,0,VALID,93.3255,VALID,0,VALID,23.1159,VALID,153,VALID,0.492969,
2010-12-26, 00:49:04,VALID,995.997,VALID,0,VALID,93.3103,VALID,0,VALID,23.1371,VALID,153,VALID,0.521875,
2010-12-26, 00:50:04,VALID,995.954,VALID,0,VALID,93.3179,VALID,0,VALID,23.1159,VALID,153,VALID,0.51875,
2010-12-26, 00:51:04,VALID,995.965,VALID,0,VALID,93.3103,VALID,0,VALID,23.1159,VALID,153,VALID,0.380859,
2010-12-26, 00:52:04,VALID,995.974,VALID,0,VALID,93.3103,VALID,0,VALID,23.0964,VALID,153,VALID,0.164063,
2010-12-26, 00:53:04,VALID,995.908,VALID,0,VALID,93.3103,VALID,0,VALID,23.0981,VALID,153,VALID,0,
2010-12-26, 00:54:04,VALID,995.925,VALID,0,VALID,93.3255,VALID,0,VALID,23.0981,VALID,153,VALID,0,
2010-12-26, 00:55:04,VALID,995.914,VALID,0,VALID,93.3331,VALID,0,VALID,23.0769,VALID,153,VALID,0,
2010-12-26, 00:56:04,VALID,995.911,VALID,0,VALID,93.3331,VALID,0,VALID,23.0769,VALID,153,VALID,0,
2010-12-26, 00:57:04,VALID,995.906,VALID,0,VALID,93.3255,VALID,0,VALID,23.0769,VALID,153,VALID,0,
2010-12-26, 00:58:04,VALID,995.876,VALID,0,VALID,93.3331,VALID,0,VALID,23.0769,VALID,153,VALID,0,
2010-12-26, 00:59:04,VALID,995.885,VALID,0,VALID,93.3255,VALID,0,VALID,23.0769,VALID,153,VALID,0,
2010-12-26, 01:00:04,VALID,995.894,VALID,0,VALID,93.3637,VALID,0,VALID,23.0769,VALID,153,VALID,0,
2010-12-26, 01:01:04,VALID,995.876,VALID,0,VALID,93.3331,VALID,0,VALID,23.0769,VALID,153,VALID,0.462109,
2010-12-26, 01:02:04,VALID,995.863,VALID,0,VALID,93.3484,VALID,0,VALID,23.0573,VALID,134,VALID,0.653125,
2010-12-26, 01:03:04,VALID,995.818,VALID,0,VALID,93.3484,VALID,0,VALID,23.0573,VALID,83,VALID,0.873047,
2010-12-26, 01:04:04,VALID,995.798,VALID,0,VALID,93.3331,VALID,0,VALID,23.0964,VALID,80,VALID,0.923828,
2010-12-26, 01:05:04,VALID,995.775,VALID,0,VALID,93.3408,VALID,0,VALID,23.0573,VALID,43,VALID,0.960156,
2010-12-26, 01:06:04,VALID,995.757,VALID,0,VALID,93.3408,VALID,0,VALID,23.0183,VALID,42,VALID,0.892969,
2010-12-26, 01:07:04,VALID,995.737,VALID,0,VALID,93.3637,VALID,0,VALID,22.9793,VALID,42,VALID,0.689453,
2010-12-26, 01:08:04,VALID,995.732,VALID,0,VALID,93.3637,VALID,0,VALID,22.9793,VALID,42,VALID,0.75625,
2010-12-26, 01:09:04,VALID,995.708,VALID,0,VALID,93.356,VALID,0,VALID,22.9598,VALID,43,VALID,0.463672,
2010-12-26, 01:10:04,VALID,995.743,VALID,0,VALID,93.356,VALID,0,VALID,22.9598,VALID,43,VALID,0.217969,
2010-12-26, 01:11:04,VALID,995.757,VALID,0,VALID,93.3637,VALID,0,VALID,22.9598,VALID,43,VALID,0.495313,
2010-12-26, 01:12:04,VALID,995.766,VALID,0,VALID,93.3637,VALID,0,VALID,22.9403,VALID,43,VALID,0.633984,
2010-12-26, 01:13:04,VALID,995.748,VALID,0,VALID,93.3789,VALID,0,VALID,22.9403,VALID,43,VALID,0.682813,
2010-12-26, 01:14:04,VALID,995.749,VALID,0,VALID,93.3942,VALID,0,VALID,22.9793,VALID,51,VALID,0.664453,
2010-12-26, 01:15:04,VALID,995.773,VALID,0,VALID,93.3789,VALID,0,VALID,22.9598,VALID,52,VALID,0.714844,
2010-12-26, 01:16:04,VALID,995.769,VALID,0,VALID,93.4018,VALID,0,VALID,22.9598,VALID,54,VALID,0.711719,
2010-12-26, 01:17:04,VALID,995.753,VALID,0,VALID,93.3942,VALID,0,VALID,22.9403,VALID,62,VALID,0.711719,
2010-12-26, 01:18:04,VALID,995.75,VALID,0,VALID,93.4018,VALID,0,VALID,22.9598,VALID,70,VALID,0.725781,
2010-12-26, 01:19:04,VALID,995.756,VALID,0,VALID,93.3789,VALID,0,VALID,22.9403,VALID,70,VALID,0.840625,
2010-12-26, 01:20:04,VALID,995.731,VALID,0,VALID,93.3942,VALID,0,VALID,22.9403,VALID,62,VALID,0.639844,
2010-12-26, 01:21:04,VALID,995.722,VALID,0,VALID,93.3789,VALID,0,VALID,22.9598,VALID,46,VALID,0.531641,
2010-12-26, 01:22:04,VALID,995.689,VALID,0,VALID,93.3789,VALID,0,VALID,22.9403,VALID,49,VALID,0.48125,
2010-12-26, 01:23:04,VALID,995.661,VALID,0,VALID,93.3866,VALID,0,VALID,22.9793,VALID,49,VALID,0.19375,
2010-12-26, 01:24:04,VALID,995.652,VALID,0,VALID,93.3942,VALID,0,VALID,22.9403,VALID,49,VALID,0.439844,
2010-12-26, 01:25:04,VALID,995.64,VALID,0,VALID,93.3942,VALID,0,VALID,22.9598,VALID,351,VALID,0.560547,
2010-12-26, 01:26:04,VALID,995.597,VALID,0,VALID,93.3942,VALID,0,VALID,22.9793,VALID,351,VALID,0.565625,
2010-12-26, 01:27:04,VALID,995.593,VALID,0,VALID,93.4018,VALID,0,VALID,22.9988,VALID,351,VALID,0.409766,
2010-12-26, 01:28:04,VALID,995.565,VALID,0,VALID,93.3942,VALID,0,VALID,22.9988,VALID,351,VALID,0.435547,
2010-12-26, 01:29:04,VALID,995.544,VALID,0,VALID,93.4094,VALID,0,VALID,23.0183,VALID,351,VALID,0.443359,
2010-12-26, 01:30:04,VALID,995.529,VALID,0,VALID,93.3942,VALID,0,VALID,23.0378,VALID,351,VALID,0.701172,
2010-12-26, 01:31:04,VALID,995.531,VALID,0,VALID,93.3942,VALID,0,VALID,23.0378,VALID,317,VALID,0.654297,
2010-12-26, 01:32:04,VALID,995.507,VALID,0,VALID,93.3942,VALID,0,VALID,23.0573,VALID,317,VALID,0.184375,
2010-12-26, 01:33:04,VALID,995.454,VALID,0,VALID,93.3942,VALID,0,VALID,23.0573,VALID,317,VALID,0.208594,
2010-12-26, 01:34:04,VALID,995.471,VALID,0,VALID,93.3942,VALID,0,VALID,23.0573,VALID,317,VALID,0.228125,
2010-12-26, 01:35:04,VALID,995.475,VALID,0,VALID,93.3789,VALID,0,VALID,23.0573,VALID,317,VALID,0.192578,
2010-12-26, 01:36:04,VALID,995.504,VALID,0,VALID,93.3789,VALID,0,VALID,23.0573,VALID,317,VALID,0,
2010-12-26, 01:37:04,VALID,995.502,VALID,0,VALID,93.3942,VALID,0,VALID,23.0573,VALID,317,VALID,0,
2010-12-26, 01:38:04,VALID,995.538,VALID,0,VALID,93.4018,VALID,0,VALID,23.0573,VALID,317,VALID,0.00117188,
2010-12-26, 01:39:04,VALID,995.496,VALID,0,VALID,93.3866,VALID,0,VALID,23.0573,VALID,317,VALID,0.489844,
2010-12-26, 01:40:04,VALID,995.518,VALID,0,VALID,93.3789,VALID,0,VALID,23.0573,VALID,339,VALID,0.692187,
2010-12-26, 01:41:04,VALID,995.531,VALID,0,VALID,93.3942,VALID,0,VALID,22.9988,VALID,35,VALID,0.840234,
2010-12-26, 01:42:04,VALID,995.495,VALID,0,VALID,93.3789,VALID,0,VALID,23.0183,VALID,52,VALID,0.549219,
2010-12-26, 01:43:04,VALID,995.511,VALID,0,VALID,93.3789,VALID,0,VALID,23.0201,VALID,52,VALID,0.258984,
2010-12-26, 01:44:04,VALID,995.495,VALID,0,VALID,93.3942,VALID,0,VALID,22.9988,VALID,52,VALID,0,
2010-12-26, 01:45:04,VALID,995.531,VALID,0,VALID,93.4094,VALID,0,VALID,23.0006,VALID,52,VALID,0.0183594,
2010-12-26, 01:46:04,VALID,995.499,VALID,0,VALID,93.3866,VALID,0,VALID,22.9811,VALID,52,VALID,0.00507812,
2010-12-26, 01:47:04,VALID,995.509,VALID,0,VALID,93.3789,VALID,0,VALID,22.9793,VALID,52,VALID,0.426953,
2010-12-26, 01:48:04,VALID,995.485,VALID,0,VALID,93.3713,VALID,0,VALID,22.9811,VALID,52,VALID,0.630859,
2010-12-26, 01:49:04,VALID,995.495,VALID,0,VALID,93.3866,VALID,0,VALID,22.9615,VALID,36,VALID,0.732422,
2010-12-26, 01:50:04,VALID,995.494,VALID,0,VALID,93.3713,VALID,0,VALID,23.0006,VALID,36,VALID,0.969141,
2010-12-26, 01:51:04,VALID,995.527,VALID,0,VALID,93.4018,VALID,0,VALID,23.0201,VALID,36,VALID,0.892578,
2010-12-26, 01:52:04,VALID,995.463,VALID,0,VALID,93.3789,VALID,0,VALID,22.9988,VALID,36,VALID,0.684375,
2010-12-26, 01:53:04,VALID,995.504,VALID,0,VALID,93.3713,VALID,0,VALID,22.9988,VALID,36,VALID,0.712109,
2010-12-26, 01:54:04,VALID,995.493,VALID,0,VALID,93.3942,VALID,0,VALID,22.9793,VALID,36,VALID,0.863672,
2010-12-26, 01:55:04,VALID,995.502,VALID,0,VALID,93.3637,VALID,0,VALID,22.9793,VALID,36,VALID,0.9,
2010-12-26, 01:56:04,VALID,995.491,VALID,0,VALID,93.3713,VALID,0,VALID,23.0006,VALID,36,VALID,0.888672,
2010-12-26, 01:57:04,VALID,995.481,VALID,0,VALID,93.356,VALID,0,VALID,23.0201,VALID,36,VALID,0.626172,
2010-12-26, 01:58:04,VALID,995.501,VALID,0,VALID,93.3866,VALID,0,VALID,22.9988,VALID,36,VALID,0.420312,
2010-12-26, 01:59:04,VALID,995.496,VALID,0,VALID,93.3789,VALID,0,VALID,22.9988,VALID,36,VALID,0.263281,
2010-12-26, 02:00:04,VALID,995.464,VALID,0,VALID,93.3713,VALID,0,VALID,23.0201,VALID,36,VALID,0.135547,
2010-12-26, 02:01:04,VALID,995.461,VALID,0,VALID,93.3866,VALID,0,VALID,23.0006,VALID,36,VALID,0.403516,
2010-12-26, 02:02:04,VALID,995.486,VALID,0,VALID,93.3942,VALID,0,VALID,23.0201,VALID,36,VALID,0.46875,
2010-12-26, 02:03:04,VALID,995.47,VALID,0,VALID,93.3866,VALID,0,VALID,23.0006,VALID,36,VALID,0.383203,
2010-12-26, 02:04:04,VALID,995.435,VALID,0,VALID,93.3866,VALID,0,VALID,23.0201,VALID,36,VALID,0.237109,
2010-12-26, 02:05:04,VALID,995.447,VALID,0,VALID,93.3713,VALID,0,VALID,23.0201,VALID,36,VALID,0.236719,
2010-12-26, 02:06:04,VALID,995.409,VALID,0,VALID,93.3637,VALID,0,VALID,23.0396,VALID,36,VALID,0.428125,
2010-12-26, 02:07:04,VALID,995.413,VALID,0,VALID,93.3484,VALID,0,VALID,22.9988,VALID,36,VALID,0.742969,
2010-12-26, 02:08:04,VALID,995.426,VALID,0,VALID,93.356,VALID,0,VALID,23.0006,VALID,36,VALID,0.841797,
2010-12-26, 02:09:04,VALID,995.401,VALID,0,VALID,93.3637,VALID,0,VALID,22.9811,VALID,36,VALID,0.775391,
2010-12-26, 02:10:04,VALID,995.414,VALID,0,VALID,93.3637,VALID,0,VALID,23.0006,VALID,39,VALID,0.979688,
2010-12-26, 02:11:04,VALID,995.397,VALID,0,VALID,93.3713,VALID,0,VALID,23.0183,VALID,50,VALID,0.864844,
2010-12-26, 02:12:04,VALID,995.424,VALID,0,VALID,93.3637,VALID,0,VALID,22.9971,VALID,51,VALID,0.605859,
2010-12-26, 02:13:04,VALID,995.419,VALID,0,VALID,93.3408,VALID,0,VALID,23.0166,VALID,51,VALID,0.466797,
2010-12-26, 02:14:04,VALID,995.451,VALID,0,VALID,93.356,VALID,0,VALID,22.9971,VALID,51,VALID,0.444922,
2010-12-26, 02:15:04,VALID,995.456,VALID,0,VALID,93.356,VALID,0,VALID,23.0183,VALID,51,VALID,0.371094,
2010-12-26, 02:16:04,VALID,995.458,VALID,0,VALID,93.3408,VALID,0,VALID,23.0183,VALID,51,VALID,0.348047,
2010-12-26, 02:17:04,VALID,995.46,VALID,0,VALID,93.3484,VALID,0,VALID,23.0183,VALID,345,VALID,0.573047,
2010-12-26, 02:18:04,VALID,995.442,VALID,0,VALID,93.3331,VALID,0,VALID,22.9971,VALID,345,VALID,0.283594,
2010-12-26, 02:19:04,VALID,995.433,VALID,0,VALID,93.3408,VALID,0,VALID,22.9971,VALID,345,VALID,0.335156,
2010-12-26, 02:20:04,VALID,995.479,VALID,0,VALID,93.356,VALID,0,VALID,23.0166,VALID,345,VALID,0.504687,
2010-12-26, 02:21:04,VALID,995.463,VALID,0,VALID,93.3179,VALID,0,VALID,22.9971,VALID,345,VALID,0.512891,
2010-12-26, 02:22:04,VALID,995.478,VALID,0,VALID,93.3331,VALID,0,VALID,23.0183,VALID,345,VALID,0.457422,
2010-12-26, 02:23:04,VALID,995.512,VALID,0,VALID,93.3255,VALID,0.112286,VALID,23.0378,VALID,345,VALID,0.564062,
2010-12-26, 02:24:04,VALID,995.505,VALID,0,VALID,93.3255,VALID,0,VALID,23.0378,VALID,345,VALID,0.398438,
2010-12-26, 02:25:04,VALID,995.522,VALID,0,VALID,93.3179,VALID,0,VALID,23.0378,VALID,345,VALID,0,
2010-12-26, 02:26:04,VALID,995.543,VALID,0,VALID,93.3255,VALID,0,VALID,23.0573,VALID,345,VALID,0,
2010-12-26, 02:27:04,VALID,995.556,VALID,0,VALID,93.3255,VALID,0,VALID,23.0361,VALID,345,VALID,0,
2010-12-26, 02:28:04,VALID,995.539,VALID,0,VALID,93.3026,VALID,0,VALID,23.0573,VALID,345,VALID,0,
2010-12-26, 02:29:04,VALID,995.575,VALID,0,VALID,93.295,VALID,0,VALID,23.0769,VALID,345,VALID,0,
2010-12-26, 02:30:04,VALID,995.579,VALID,0,VALID,93.2874,VALID,0,VALID,23.0769,VALID,345,VALID,0,
2010-12-26, 02:31:04,VALID,995.575,VALID,0,VALID,93.2721,VALID,0,VALID,23.0573,VALID,345,VALID,0,
2010-12-26, 02:32:04,VALID,995.576,VALID,0,VALID,93.2874,VALID,0.112286,VALID,23.0556,VALID,345,VALID,0.0796875,
2010-12-26, 02:33:04,VALID,995.549,VALID,0,VALID,93.2797,VALID,0,VALID,23.0769,VALID,345,VALID,0.608984,
2010-12-26, 02:34:04,VALID,995.593,VALID,0,VALID,93.2721,VALID,0,VALID,23.0361,VALID,345,VALID,0.730469,
2010-12-26, 02:35:04,VALID,995.598,VALID,0,VALID,93.2492,VALID,0,VALID,23.0556,VALID,345,VALID,0.603516,
2010-12-26, 02:36:04,VALID,995.597,VALID,0,VALID,93.2492,VALID,0,VALID,23.0573,VALID,345,VALID,0.266797,
2010-12-26, 02:37:04,VALID,995.603,VALID,0,VALID,93.2416,VALID,0,VALID,23.0573,VALID,345,VALID,0,
2010-12-26, 02:38:04,VALID,995.589,VALID,0,VALID,93.234,VALID,0,VALID,23.0166,VALID,345,VALID,0,
2010-12-26, 02:39:04,VALID,995.624,VALID,0,VALID,93.2263,VALID,0,VALID,23.0166,VALID,345,VALID,0.373437,
2010-12-26, 02:40:04,VALID,995.631,VALID,0,VALID,93.2416,VALID,0,VALID,23.0378,VALID,345,VALID,0.583594,
2010-12-26, 02:41:04,VALID,995.631,VALID,0,VALID,93.2111,VALID,0,VALID,23.0183,VALID,345,VALID,0.777734,
2010-12-26, 02:42:04,VALID,995.656,VALID,0,VALID,93.234,VALID,0,VALID,22.9776,VALID,345,VALID,0.733984,
2010-12-26, 02:43:04,VALID,995.677,VALID,0,VALID,93.2034,VALID,0,VALID,22.9988,VALID,345,VALID,0.292188,
2010-12-26, 02:44:04,VALID,995.702,VALID,0,VALID,93.1958,VALID,0,VALID,23.0183,VALID,345,VALID,0.44375,
2010-12-26, 02:45:04,VALID,995.731,VALID,0,VALID,93.2111,VALID,0,VALID,23.0166,VALID,345,VALID,0.807031,
2010-12-26, 02:46:04,VALID,995.741,VALID,0,VALID,93.1882,VALID,0,VALID,23.0361,VALID,345,VALID,0.749609,
2010-12-26, 02:47:04,VALID,995.757,VALID,0,VALID,93.1958,VALID,0,VALID,23.0361,VALID,345,VALID,0.514063,
2010-12-26, 02:48:04,VALID,995.743,VALID,0,VALID,93.1805,VALID,0,VALID,23.0573,VALID,6,VALID,0.885156,
2010-12-26, 02:49:04,VALID,995.778,VALID,0,VALID,93.1729,VALID,0,VALID,23.0769,VALID,19,VALID,1.02109,
2010-12-26, 02:50:04,VALID,995.788,VALID,0,VALID,93.1805,VALID,0,VALID,23.0573,VALID,19,VALID,0.849609,
2010-12-26, 02:51:04,VALID,995.778,VALID,0,VALID,93.1729,VALID,0,VALID,23.0378,VALID,19,VALID,0.905859,
2010-12-26, 02:52:04,VALID,995.814,VALID,0,VALID,93.1653,VALID,0,VALID,23.0378,VALID,18,VALID,1.10859,
2010-12-26, 02:53:04,VALID,995.809,VALID,0,VALID,93.15,VALID,0,VALID,23.0378,VALID,25,VALID,1.125,
2010-12-26, 02:54:04,VALID,995.83,VALID,0,VALID,93.15,VALID,0,VALID,23.0183,VALID,35,VALID,0.970703,
2010-12-26, 02:55:04,VALID,995.854,VALID,0,VALID,93.1271,VALID,0,VALID,22.9988,VALID,12,VALID,0.786719,
2010-12-26, 02:56:04,VALID,995.865,VALID,0,VALID,93.1577,VALID,0,VALID,23.0183,VALID,10,VALID,0.804297,
2010-12-26, 02:57:04,VALID,995.873,VALID,0,VALID,93.1271,VALID,0,VALID,23.0183,VALID,10,VALID,0.642578,
2010-12-26, 02:58:04,VALID,995.893,VALID,0,VALID,93.1424,VALID,0,VALID,23.0378,VALID,10,VALID,0.615234,
2010-12-26, 02:59:04,VALID,995.9,VALID,0,VALID,93.1271,VALID,0,VALID,23.0378,VALID,10,VALID,0.871875,
2010-12-26, 03:00:04,VALID,995.909,VALID,0,VALID,93.1424,VALID,0,VALID,23.0183,VALID,24,VALID,0.838281,
2010-12-26, 03:01:04,VALID,995.953,VALID,0,VALID,93.1119,VALID,0,VALID,23.0378,VALID,24,VALID,0.535156,
2010-12-26, 03:02:04,VALID,995.981,VALID,0,VALID,93.1043,VALID,0,VALID,22.9988,VALID,24,VALID,0.5,
2010-12-26, 03:03:04,VALID,995.956,VALID,0,VALID,93.1195,VALID,0,VALID,23.0183,VALID,24,VALID,0.402734,
2010-12-26, 03:04:04,VALID,995.953,VALID,0,VALID,93.1043,VALID,0,VALID,23.0183,VALID,24,VALID,0.568359,
2010-12-26, 03:05:04,VALID,995.965,VALID,0,VALID,93.1119,VALID,0,VALID,23.0378,VALID,24,VALID,0.448047,
2010-12-26, 03:06:04,VALID,995.961,VALID,0,VALID,93.1043,VALID,0,VALID,23.0378,VALID,24,VALID,0.405078,
2010-12-26, 03:07:04,VALID,995.964,VALID,0,VALID,93.1119,VALID,0,VALID,23.0378,VALID,28,VALID,0.357031,
2010-12-26, 03:08:04,VALID,995.977,VALID,0,VALID,93.089,VALID,0,VALID,23.0378,VALID,58,VALID,0.963672,
2010-12-26, 03:09:04,VALID,995.99,VALID,0,VALID,93.089,VALID,0,VALID,23.0378,VALID,58,VALID,0.971875,
2010-12-26, 03:10:04,VALID,995.975,VALID,0,VALID,93.0737,VALID,0,VALID,23.0573,VALID,58,VALID,0.716797,
2010-12-26, 03:11:04,VALID,995.977,VALID,0,VALID,93.0814,VALID,0,VALID,23.0378,VALID,57,VALID,1.14883,
2010-12-26, 03:12:04,VALID,996.002,VALID,0,VALID,93.0737,VALID,0,VALID,23.0573,VALID,58,VALID,1.11641,
2010-12-26, 03:13:04,VALID,995.962,VALID,0,VALID,93.0585,VALID,0,VALID,23.0573,VALID,63,VALID,1.18047,
2010-12-26, 03:14:04,VALID,995.983,VALID,0,VALID,93.0661,VALID,0,VALID,23.0573,VALID,55,VALID,0.936719,
2010-12-26, 03:15:04,VALID,996.008,VALID,0,VALID,93.0814,VALID,0,VALID,23.0769,VALID,54,VALID,0.683984,
2010-12-26, 03:16:04,VALID,995.99,VALID,0,VALID,93.0585,VALID,0,VALID,23.0769,VALID,54,VALID,0.810547,
2010-12-26, 03:17:04,VALID,995.986,VALID,0,VALID,93.0508,VALID,0,VALID,23.0573,VALID,54,VALID,0.882813,
2010-12-26, 03:18:04,VALID,996.019,VALID,0,VALID,93.0661,VALID,0,VALID,23.0573,VALID,56,VALID,0.967188,
2010-12-26, 03:19:04,VALID,996.017,VALID,0,VALID,93.0661,VALID,0,VALID,23.0786,VALID,73,VALID,0.817969,
2010-12-26, 03:20:04,VALID,996.051,VALID,0,VALID,93.0432,VALID,0,VALID,23.0786,VALID,73,VALID,0.382813,
2010-12-26, 03:21:04,VALID,996.083,VALID,0,VALID,93.0508,VALID,0,VALID,23.0573,VALID,73,VALID,0,
2010-12-26, 03:22:04,VALID,996.078,VALID,0,VALID,93.0585,VALID,0,VALID,23.0378,VALID,80,VALID,0.625391,
2010-12-26, 03:23:04,VALID,996.077,VALID,0,VALID,93.0585,VALID,0,VALID,23.0378,VALID,97,VALID,0.602344,
2010-12-26, 03:24:04,VALID,996.11,VALID,0,VALID,93.0585,VALID,0,VALID,23.0378,VALID,97,VALID,0.276563,
2010-12-26, 03:25:04,VALID,996.08,VALID,0,VALID,93.0585,VALID,0,VALID,23.0573,VALID,97,VALID,0,
2010-12-26, 03:26:04,VALID,996.062,VALID,0,VALID,93.0585,VALID,0,VALID,23.0378,VALID,97,VALID,0,
2010-12-26, 03:27:04,VALID,996.046,VALID,0,VALID,93.0661,VALID,0,VALID,23.0378,VALID,97,VALID,0.912891,
2010-12-26, 03:28:04,VALID,996.045,VALID,0,VALID,93.0585,VALID,0,VALID,23.0378,VALID,97,VALID,0.262891,
2010-12-26, 03:29:04,VALID,996.052,VALID,0,VALID,93.0661,VALID,0,VALID,23.0573,VALID,282,VALID,0.940625,
2010-12-26, 03:30:04,VALID,995.994,VALID,0,VALID,93.0737,VALID,0,VALID,23.0573,VALID,284,VALID,0.169141,
2010-12-26, 03:31:04,VALID,995.994,VALID,0,VALID,93.0737,VALID,0,VALID,23.0573,VALID,284,VALID,1.00234,
2010-12-26, 03:32:04,VALID,996.005,VALID,0,VALID,93.0737,VALID,0,VALID,23.0769,VALID,72,VALID,1.06172,
2010-12-26, 03:33:04,VALID,996.021,VALID,0,VALID,93.0585,VALID,0,VALID,23.0573,VALID,35,VALID,0.539453,
2010-12-26, 03:34:04,VALID,996.035,VALID,0,VALID,93.0737,VALID,0,VALID,23.0378,VALID,340,VALID,0.446094,
2010-12-26, 03:35:04,VALID,996.037,VALID,0,VALID,93.0508,VALID,0,VALID,23.0573,VALID,340,VALID,0.341406,
2010-12-26, 03:36:04,VALID,995.987,VALID,0,VALID,93.0814,VALID,0,VALID,23.0573,VALID,348,VALID,0.666797,
2010-12-26, 03:37:04,VALID,995.975,VALID,0,VALID,93.0814,VALID,0,VALID,23.0361,VALID,37,VALID,0.743359,
2010-12-26, 03:38:04,VALID,995.984,VALID,0,VALID,93.0661,VALID,0,VALID,23.0573,VALID,37,VALID,0.448828,
2010-12-26, 03:39:04,VALID,995.967,VALID,0,VALID,93.0585,VALID,0,VALID,23.0573,VALID,18,VALID,0.662109,
2010-12-26, 03:40:04,VALID,995.955,VALID,0,VALID,93.0737,VALID,0,VALID,23.0573,VALID,45,VALID,0.574219,
2010-12-26, 03:41:04,VALID,995.971,VALID,0,VALID,93.0508,VALID,0,VALID,23.0573,VALID,342,VALID,0.667969,
2010-12-26, 03:42:04,VALID,995.932,VALID,0,VALID,93.0661,VALID,0,VALID,23.0378,VALID,342,VALID,0.48125,
2010-12-26, 03:43:04,VALID,995.94,VALID,0,VALID,93.0814,VALID,0,VALID,23.0378,VALID,342,VALID,0.621875,
2010-12-26, 03:44:04,VALID,995.946,VALID,0,VALID,93.0585,VALID,0,VALID,23.0183,VALID,94,VALID,0.814844,
2010-12-26, 03:45:04,VALID,995.952,VALID,0,VALID,93.0737,VALID,0,VALID,23.0378,VALID,92,VALID,0.783203,
2010-12-26, 03:46:04,VALID,995.973,VALID,0,VALID,93.089,VALID,0,VALID,23.0378,VALID,92,VALID,0.395703,
2010-12-26, 03:47:04,VALID,996.006,VALID,0,VALID,93.0661,VALID,0,VALID,23.0378,VALID,95,VALID,0.382813,